Location: Dallas
(32.7833°N, 96.8000°W)
Time: 11:28:24
(UTC-05:00)

Envisat - Pass Details

Date: 03 March 2018
Orbit: 764 x 766 km, 98.1° (Epoch: 22 October)

Event Time Altitude Azimuth Distance (km) Brightness Sun altitude
Exits shadow 19:56:34 16° 154° (SSE) 1,900 4.7 -19.8°
Maximum altitude 20:00:33 66° 75° (ENE) 835 2.9 -20.6°
Drops below altitude 10° 20:05:35 10° 354° (N) 2,305 5.6 -21.7°
Sets 20:07:54 0° 352° (N) 3,234 6.4 -22.2°
